EW5039 Weather Reports


time (UTC)temp
F
wind
direction
speed
knots
gust
knots
rain 1hr
in
rain 24hr
in
rain mn
in
humidity
%
barometer
mb
20260508014631 58 198 7.8 8.7 0.00 0.00 0.00 70 1011.3
20260508014434 58 202 7.8 8.7 0.00 0.00 0.00 70 1011.3
20260508014213 58 202 7.0 8.7 0.00 0.00 0.00 69 1011.3
20260508014012 58 205 7.0 8.7 0.00 0.00 0.00 69 1011.3
20260508013816 58 204 7.0 7.8 0.00 0.00 0.00 69 1011.3
20260508013555 58 206 6.1 7.8 0.00 0.00 0.00 69 1011.3
20260508013355 59 203 5.2 7.0 0.00 0.00 0.00 69 1011.3
20260508013159 59 203 5.2 6.1 0.00 0.00 0.00 69 1011.3
20260508012958 59 208 5.2 6.1 0.00 0.00 0.00 68 1011.3
20260508012740 59 208 5.2 6.1 0.00 0.00 0.00 67 1011.3
20260508012540 59 207 5.2 6.1 0.00 0.00 0.00 67 1011.3
20260508012339 60 209 5.2 6.1 0.00 0.00 0.00 66 1011.3
20260508012143 60 207 4.3 5.2 0.00 0.00 0.00 65 1011.2
20260508011922 60 211 4.3 5.2 0.00 0.00 0.00 64 1011.3
20260508011712 61 211 4.3 5.2 0.00 0.00 0.00 63 1011.3
20260508011316 62 211 3.5 5.2 0.00 0.00 0.00 61 1011.2
20260508011059 62 214 3.5 5.2 0.00 0.00 0.00 60 1011.2
20260508010859 62 217 3.5 5.2 0.00 0.00 0.00 59 1011.2
20260508010637 62 225 3.5 5.2 0.00 0.00 0.00 59 1011.2
20260508010441 62 228 3.5 5.2 0.00 0.00 0.00 57 1011.2
20260508010240 62 228 3.5 5.2 0.00 0.00 0.00 58 1011.2
20260508010044 62 233 3.5 6.1 0.00 0.00 0.00 58 1011.2
20260508005844 62 229 3.5 6.1 0.00 0.00 0.00 59 1011.2
20260508005644 62 224 3.5 6.1 0.00 0.00 0.00 58 1011.1
20260508005447 63 225 3.5 6.1 0.00 0.00 0.00 58 1011.2
20260508005247 63 226 3.5 6.1 0.00 0.00 0.00 57 1011.1
20260508005047 63 236 3.5 6.1 0.00 0.00 0.00 58 1011.2
20260508004851 63 232 3.5 7.8 0.00 0.00 0.00 58 1011.2
20260508004651 63 229 4.3 7.8 0.00 0.00 0.00 59 1011.2
20260508004455 63 233 4.3 7.8 0.00 0.00 0.00 58 1011.1
20260508004253 63 234 4.3 8.7 0.00 0.00 0.00 57 1011.1
20260508004053 63 244 5.2 8.7 0.00 0.00 0.00 57 1011.1
20260508003837 64 234 5.2 8.7 0.00 0.00 0.00 56 1011.1
20260508003636 64 237 6.1 8.7 0.00 0.00 0.00 56 1011.1
20260508003440 64 229 7.0 8.7 0.00 0.00 0.00 54 1011.1
20260508003239 64 240 6.1 9.6 0.00 0.00 0.00 54 1011.1
20260508003040 64 244 7.0 9.6 0.00 0.00 0.00 55 1011.1
20260508002842 64 238 6.1 9.6 0.00 0.00 0.00 54 1011.1
20260508002643 64 242 7.0 9.6 0.00 0.00 0.00 54 1011.1
20260508002442 65 249 7.0 9.6 0.00 0.00 0.00 54 1011.0
20260508002245 65 248 6.1 12.2 0.00 0.00 0.00 52 1011.1
20260508002045 65 254 6.1 12.2 0.00 0.00 0.00 54 1011.0
20260508001849 65 244 7.0 12.2 0.00 0.00 0.00 54 1011.0
20260508001648 65 246 7.8 12.2 0.00 0.00 0.00 51 1011.0
20260508001501 65 242 7.8 11.3 0.00 0.00 0.00 52 1011.0
20260508001126 65 242 7.8 10.4 0.00 0.00 0.00 52 1011.0
20260508000905 65 248 7.8 10.4 0.00 0.00 0.00 52 1011.0
20260508000709 65 244 7.8 10.4 0.00 0.00 0.00 53 1011.0
20260508000509 65 258 7.8 13.0 0.00 0.00 0.00 52 1011.0
20260508000253 65 248 8.7 13.0 0.00 0.00 0.00 52 1011.0
20260508000053 65 242 9.6 13.9 0.00 0.00 0.00 51 1011.0
20260507235852 65 242 9.6 13.9 0.00 0.00 0.00 52 1011.0
20260507235634 65 265 10.4 13.9 0.00 0.00 0.00 52 1011.0
20260507235434 65 258 10.4 13.9 0.00 0.00 0.00 51 1010.9
20260507235239 65 254 9.6 13.9 0.00 0.00 0.00 52 1011.0
20260507235038 65 254 9.6 13.9 0.00 0.00 0.00 51 1011.0
20260507234838 65 244 9.6 13.9 0.00 0.00 0.00 53 1011.0
20260507234641 65 255 10.4 15.6 0.00 0.00 0.00 49 1011.0
20260507234441 65 241 10.4 16.5 0.00 0.00 0.00 51 1010.9
20260507234220 65 248 11.3 16.5 0.00 0.00 0.00 50 1010.9
20260507234023 65 239 12.2 17.4 0.00 0.00 0.00 49 1011.0
20260507233822 65 242 12.2 17.4 0.00 0.00 0.00 50 1011.0
20260507233627 65 242 13.0 17.4 0.00 0.00 0.00 51 1011.0
20260507233426 65 237 13.0 18.2 0.00 0.00 0.00 51 1010.9
20260507233205 65 246 13.0 18.2 0.00 0.00 0.00 50 1011.0
20260507233009 65 253 12.2 18.2 0.00 0.00 0.00 51 1011.0
20260507232808 65 254 11.3 18.2 0.00 0.00 0.00 51 1011.0
20260507232612 65 240 9.6 14.8 0.00 0.00 0.00 51 1010.9
20260507232346 66 236 8.7 13.9 0.00 0.00 0.00 52 1010.9
20260507232146 66 242 9.6 13.9 0.00 0.00 0.00 53 1010.9
20260507231949 66 237 9.6 13.9 0.00 0.00 0.00 51 1011.0
20260507231750 66 249 9.6 13.9 0.00 0.00 0.00 50 1011.0
20260507231602 66 255 9.6 14.8 0.00 0.00 0.00 51 1011.0
20260507231226 66 241 11.3 14.8 0.00 0.00 0.00 49 1011.0
20260507231026 66 246 12.2 14.8 0.00 0.00 0.00 50 1011.0
20260507230826 66 256 12.2 17.4 0.00 0.00 0.00 51 1011.1
20260507230625 66 225 12.2 19.1 0.00 0.00 0.00 50 1011.0
20260507230429 66 253 13.0 19.1 0.00 0.00 0.00 50 1011.1
20260507230228 66 265 13.9 19.1 0.00 0.00 0.00 50 1011.1
20260507230028 66 254 13.9 19.1 0.00 0.00 0.00 48 1011.2
20260507225832 66 249 13.9 19.1 0.00 0.00 0.00 49 1011.2
20260507225631 66 246 13.0 18.2 0.00 0.00 0.00 48 1011.2
20260507225414 66 240 13.9 18.2 0.00 0.00 0.00 48 1011.2
20260507225214 66 242 13.0 18.2 0.00 0.00 0.00 50 1011.2
20260507224952 66 228 13.0 18.2 0.00 0.00 0.00 48 1011.3
20260507224734 66 229 12.2 16.5 0.00 0.00 0.00 50 1011.3
20260507224534 66 245 11.3 15.6 0.00 0.00 0.00 50 1011.3
20260507224338 66 252 10.4 18.2 0.00 0.00 0.00 51 1011.3
20260507224116 65 261 12.2 18.2 0.00 0.00 0.00 51 1011.3
20260507223855 65 252 12.2 18.2 0.00 0.00 0.00 51 1011.4
20260507223659 65 252 12.2 18.2 0.00 0.00 0.00 51 1011.3
20260507223459 65 265 12.2 16.5 0.00 0.00 0.00 51 1011.3
20260507223258 65 258 12.2 16.5 0.00 0.00 0.00 50 1011.4
20260507223102 65 246 13.0 16.5 0.00 0.00 0.00 50 1011.4
20260507222902 65 254 13.0 18.2 0.00 0.00 0.00 50 1011.4
20260507222706 65 240 13.9 18.2 0.00 0.00 0.00 49 1011.6
20260507222505 66 246 13.0 18.2 0.00 0.00 0.00 48 1011.5
20260507222306 66 246 12.2 18.2 0.00 0.00 0.00 49 1011.5
20260507222110 66 259 11.3 18.2 0.00 0.00 0.00 50 1011.4
20260507221910 66 240 11.3 17.4 0.00 0.00 0.00 49 1011.4
20260507221713 66 248 11.3 17.4 0.00 0.00 0.00 50 1011.4
20260507221520 66 264 12.2 17.4 0.00 0.00 0.00 49 1011.4
20260507221149 66 249 12.2 18.2 0.00 0.00 0.00 46 1011.4
20260507220927 66 248 13.9 21.7 0.00 0.00 0.00 48 1011.4
20260507220727 66 244 13.9 21.7 0.00 0.00 0.00 49 1011.4
20260507220531 66 261 14.8 21.7 0.00 0.00 0.00 48 1011.4
20260507220331 66 251 13.9 21.7 0.00 0.00 0.00 48 1011.5
20260507220134 66 263 13.0 21.7 0.00 0.00 0.00 50 1011.4
20260507215934 66 254 12.2 20.0 0.00 0.00 0.00 48 1011.5
20260507215713 66 236 13.0 21.7 0.00 0.00 0.00 47 1011.6
20260507215517 66 250 13.9 21.7 0.00 0.00 0.00 48 1011.5
20260507215317 67 265 13.9 21.7 0.00 0.00 0.00 46 1011.6
20260507215117 67 244 14.8 21.7 0.00 0.00 0.00 49 1011.6
20260507214922 67 257 13.9 21.7 0.00 0.00 0.00 49 1011.5
20260507214700 67 247 13.0 21.7 0.00 0.00 0.00 50 1011.5
20260507214504 67 261 12.2 20.9 0.00 0.00 0.00 52 1011.5
20260507214303 67 261 11.3 15.6 0.00 0.00 0.00 48 1011.5
20260507214103 67 246 11.3 20.0 0.00 0.00 0.00 49 1011.5
20260507213908 67 243 12.2 20.0 0.00 0.00 0.00 49 1011.5
20260507213706 67 246 13.0 20.0 0.00 0.00 0.00 51 1011.5
20260507213510 66 263 13.9 20.0 0.00 0.00 0.00 49 1011.6
20260507213310 66 266 14.8 19.1 0.00 0.00 0.00 49 1011.5
20260507213110 66 248 13.0 16.5 0.00 0.00 0.00 51 1011.6
20260507212914 66 249 12.2 20.0 0.00 0.00 0.00 46 1011.8
20260507212714 66 261 12.2 20.0 0.00 0.00 0.00 50 1011.8
20260507212453 66 250 12.2 20.0 0.00 0.00 0.00 48 1011.7
20260507212256 66 259 13.0 18.2 0.00 0.00 0.00 48 1011.7
20260507212056 66 267 13.0 18.2 0.00 0.00 0.00 49 1011.7
20260507211859 66 258 13.9 20.9 0.00 0.00 0.00 48 1011.7
20260507211659 66 263 15.6 20.9 0.00 0.00 0.00 49 1011.8
20260507211512 66 254 15.6 20.9 0.00 0.00 0.00 49 1011.8
20260507211136 66 259 16.5 20.9 0.00 0.00 0.00 49 1011.9
20260507210936 66 259 14.8 20.0 0.00 0.00 0.00 51 1011.9
20260507210718 65 263 14.8 19.1 0.00 0.00 0.00 50 1011.8
20260507210518 65 255 14.8 19.1 0.00 0.00 0.00 50 1011.8
20260507210259 66 261 13.9 19.1 0.00 0.00 0.00 49 1011.9
20260507210038 66 252 13.0 20.0 0.00 0.00 0.00 48 1012.0
20260507205837 66 243 13.9 23.5 0.00 0.00 0.00 49 1012.0
20260507205640 66 244 14.8 23.5 0.00 0.00 0.00 48 1012.0
20260507205440 66 235 13.9 23.5 0.00 0.00 0.00 50 1012.1
20260507205244 66 244 13.0 23.5 0.00 0.00 0.00 48 1012.2
20260507205023 66 245 12.2 18.2 0.00 0.00 0.00 51 1012.1
20260507204822 66 222 13.0 18.2 0.00 0.00 0.00 51 1012.2
20260507204626 66 234 13.9 18.2 0.00 0.00 0.00 52 1012.3
20260507204426 66 255 13.9 21.7 0.00 0.00 0.00 56 1012.2
20260507204205 66 278 14.8 21.7 0.00 0.00 0.00 56 1012.3
20260507204008 66 250 14.8 21.7 0.00 0.00 0.00 48 1012.3
20260507203747 66 269 14.8 20.9 0.00 0.00 0.00 49 1012.4
20260507203550 66 272 13.9 20.9 0.00 0.00 0.00 52 1012.4
20260507203351 66 261 14.8 20.9 0.00 0.00 0.00 49 1012.4
20260507203128 65 257 14.8 20.9 0.00 0.00 0.00 49 1012.6
20260507202932 66 259 13.9 19.1 0.00 0.00 0.00 52 1012.6
20260507202732 65 257 13.0 19.1 0.00 0.00 0.00 51 1012.7
20260507202514 65 239 13.0 20.0 0.00 0.00 0.00 52 1012.6
20260507202314 64 274 13.9 20.0 0.00 0.00 0.00 52 1012.6
20260507202051 64 261 14.8 18.2 0.00 0.00 0.00 50 1012.7
20260507201833 64 254 14.8 20.9 0.00 0.00 0.00 52 1012.8
20260507201619 64 258 13.9 20.9 0.00 0.00 0.00 52 1012.8
20260507201249 65 245 13.9 20.9 0.00 0.00 0.00 51 1012.9
20260507201048 65 245 13.9 20.9 0.00 0.00 0.00 51 1013.1
20260507200831 65 279 13.9 20.9 0.00 0.00 0.00 48 1012.9
20260507200610 65 238 14.8 21.7 0.00 0.00 0.00 48 1013.1
20260507200411 65 252 13.9 21.7 0.00 0.00 0.00 50 1013.1
20260507200215 65 254 13.9 21.7 0.00 0.00 0.00 50 1013.1
20260507195953 65 246 13.0 21.7 0.00 0.00 0.00 50 1013.1
20260507195752 65 252 13.0 21.7 0.00 0.00 0.00 48 1013.1
20260507195555 65 245 11.3 17.4 0.00 0.00 0.00 55 1013.2
20260507195355 64 257 12.2 17.4 0.00 0.00 0.00 55 1013.2
20260507195158 64 281 13.0 17.4 0.00 0.00 0.00 50 1013.2
20260507194937 64 257 12.2 20.0 0.00 0.00 0.00 53 1013.2
20260507194715 65 259 13.0 20.0 0.00 0.00 0.00 49 1013.3
20260507194518 64 279 13.9 20.0 0.00 0.00 0.00 50 1013.4
20260507194318 64 244 13.9 20.0 0.00 0.00 0.00 50 1013.4
20260507194123 65 260 13.9 20.0 0.00 0.00 0.00 51 1013.4
20260507193901 65 260 13.0 20.0 0.00 0.00 0.00 52 1013.4
20260507193640 65 252 14.8 20.0 0.00 0.00 0.00 53 1013.5
20260507193443 64 238 14.8 18.2 0.00 0.00 0.00 49 1013.5
20260507193243 64 247 14.8 21.7 0.00 0.00 0.00 49 1013.5
20260507193042 64 267 14.8 21.7 0.00 0.00 0.00 49 1013.5
20260507192823 65 238 13.9 21.7 0.00 0.00 0.00 50 1013.5
20260507192602 65 243 13.9 21.7 0.00 0.00 0.00 56 1013.6
20260507192407 65 245 13.9 19.1 0.00 0.00 0.00 56 1013.6
20260507192205 65 251 13.9 18.2 0.00 0.00 0.00 51 1013.5
20260507191944 65 246 12.2 17.4 0.00 0.00 0.00 51 1013.5
20260507191747 64 276 11.3 17.4 0.00 0.00 0.00 50 1013.5
20260507191556 65 245 12.2 17.4 0.00 0.00 0.00 53 1013.6
20260507191204 65 276 12.2 18.2 0.00 0.00 0.00 49 1013.7
20260507191004 64 259 12.2 19.1 0.00 0.00 0.00 54 1013.7
20260507190746 64 256 13.0 19.1 0.00 0.00 0.00 54 1013.8
20260507190546 64 252 13.0 19.1 0.00 0.00 0.00 52 1013.7
20260507190325 64 240 13.9 19.1 0.00 0.00 0.00 51 1013.8
20260507190129 64 252 13.9 20.0 0.00 0.00 0.00 53 1013.8
20260507185928 64 269 13.9 20.0 0.00 0.00 0.00 52 1013.8
20260507185711 63 274 14.8 20.0 0.00 0.00 0.00 55 1013.8
20260507185510 63 240 13.9 21.7 0.00 0.00 0.00 54 1013.9
20260507185310 63 278 14.8 21.7 0.00 0.00 0.00 53 1013.8
20260507185115 63 259 13.9 21.7 0.00 0.00 0.00 56 1013.8
20260507184914 63 255 13.9 21.7 0.00 0.00 0.00 53 1013.9
20260507184713 63 261 13.9 21.7 0.00 0.00 0.00 55 1013.8
20260507184517 63 275 13.0 21.7 0.00 0.00 0.00 51 1013.6
20260507184317 63 276 12.2 16.5 0.00 0.00 0.00 54 1013.7
20260507184120 63 281 12.2 16.5 0.00 0.00 0.00 55 1013.8
20260507183919 63 257 12.2 20.0 0.00 0.00 0.00 54 1013.9
20260507183719 63 246 13.0 20.0 0.00 0.00 0.00 55 1013.9
20260507183524 63 259 14.8 20.0 0.00 0.00 0.00 51 1014.0
20260507183302 64 246 14.8 21.7 0.00 0.00 0.00 50 1014.0
20260507183106 64 242 15.6 21.7 0.00 0.00 0.00 53 1014.0
20260507182906 63 246 14.8 21.7 0.00 0.00 0.00 56 1013.8
20260507182706 63 256 14.8 21.7 0.00 0.00 0.00 50 1014.0
20260507182448 64 239 12.2 21.7 0.00 0.00 0.00 53 1013.9
20260507182247 64 249 12.2 19.1 0.00 0.00 0.00 54 1013.8
20260507182047 63 252 12.2 17.4 0.00 0.00 0.00 54 1013.9
20260507181851 63 262 13.0 17.4 0.00 0.00 0.00 53 1013.9
20260507181651 63 263 13.9 17.4 0.00 0.00 0.00 53 1013.9
20260507181503 63 275 14.8 20.0 0.00 0.00 0.00 53 1013.9
20260507181129 63 254 13.9 21.7 0.00 0.00 0.00 52 1014.1
20260507180932 63 259 13.0 21.7 0.00 0.00 0.00 55 1014.0
20260507180731 63 251 12.2 22.6 0.00 0.00 0.00 55 1014.1
20260507180532 63 252 12.2 22.6 0.00 0.00 0.00 56 1014.2
20260507180335 63 236 13.0 22.6 0.00 0.00 0.00 50 1014.3
20260507180135 63 266 13.0 22.6 0.00 0.00 0.00 55 1014.3
20260507175939 63 259 13.9 22.6 0.00 0.00 0.00 55 1014.3
20260507175738 62 259 14.8 22.6 0.00 0.00 0.00 53 1014.4
20260507175538 63 260 14.8 22.6 0.00 0.00 0.00 53 1014.3
20260507175319 63 259 14.8 22.6 0.00 0.00 0.00 52 1014.3
20260507175119 63 301 14.8 22.6 0.00 0.00 0.00 54 1014.4
20260507174922 63 263 13.9 26.1 0.00 0.00 0.00 54 1014.5
20260507174721 63 276 12.2 26.1 0.00 0.00 0.00 51 1014.5
20260507174521 62 279 13.0 26.1 0.00 0.00 0.00 55 1014.5
20260507174325 63 270 14.8 26.1 0.00 0.00 0.00 55 1014.5
20260507174125 63 240 14.8 26.1 0.00 0.00 0.00 52 1014.5
20260507173924 63 259 13.9 24.3 0.00 0.00 0.00 52 1014.5
20260507173726 63 267 13.0 24.3 0.00 0.00 0.00 52 1014.6
20260507173526 62 259 13.9 24.3 0.00 0.00 0.00 51 1014.6
20260507173330 62 268 13.9 24.3 0.00 0.00 0.00 52 1014.6
20260507173130 63 262 15.6 24.3 0.00 0.00 0.00 52 1014.6
20260507172930 62 261 13.9 16.5 0.00 0.00 0.00 53 1014.6
20260507172733 62 263 13.0 16.5 0.00 0.00 0.00 55 1014.6
20260507172512 62 269 12.2 16.5 0.00 0.00 0.00 53 1014.7
20260507172314 62 252 12.2 18.2 0.00 0.00 0.00 52 1014.6
20260507172053 62 260 11.3 18.2 0.00 0.00 0.00 55 1014.7
20260507171853 62 263 11.3 20.9 0.00 0.00 0.00 56 1014.7
20260507171704 62 268 12.2 20.9 0.00 0.00 0.00 56 1014.8
20260507171307 62 259 13.0 20.9 0.00 0.00 0.00 55 1014.9
20260507171110 62 250 13.0 20.9 0.00 0.00 0.00 54 1014.8
20260507170910 62 272 14.8 20.0 0.00 0.00 0.00 58 1014.8
20260507170714 62 257 14.8 21.7 0.00 0.00 0.00 53 1014.9
20260507170451 62 246 13.0 21.7 0.00 0.00 0.00 53 1015.0
20260507170250 62 251 12.2 21.7 0.00 0.00 0.00 59 1014.9
20260507170054 62 269 13.9 21.7 0.00 0.00 0.00 57 1015.0
20260507165854 62 292 14.8 20.0 0.00 0.00 0.00 57 1014.9
20260507165651 61 239 14.8 20.0 0.00 0.00 0.00 56 1015.0
20260507165455 61 250 14.8 20.0 0.00 0.00 0.00 54 1015.0
20260507165253 61 237 13.9 19.1 0.00 0.00 0.00 55 1014.9
20260507165056 61 238 13.9 19.1 0.00 0.00 0.00 54 1015.0
20260507164856 61 249 13.0 19.1 0.00 0.00 0.00 51 1015.0
20260507164656 61 242 13.9 20.9 0.00 0.00 0.00 54 1015.0
20260507164500 61 248 13.9 20.9 0.00 0.00 0.00 52 1015.1
20260507164300 61 225 13.9 24.3 0.00 0.00 0.00 52 1015.1
20260507164104 61 260 15.6 24.3 0.00 0.00 0.00 52 1015.1
20260507163902 61 243 15.6 24.3 0.00 0.00 0.00 54 1015.1
20260507163703 61 260 13.9 20.0 0.00 0.00 0.00 56 1015.2
20260507163445 61 237 13.9 20.0 0.00 0.00 0.00 52 1015.2
20260507163245 61 269 13.0 20.9 0.00 0.00 0.00 55 1015.1
20260507163045 61 286 13.0 20.9 0.00 0.00 0.00 52 1015.2
20260507162849 61 275 13.9 20.9 0.00 0.00 0.00 53 1015.2
20260507162649 60 267 13.9 20.9 0.00 0.00 0.00 54 1015.2
20260507162451 60 242 13.0 20.9 0.00 0.00 0.00 53 1015.4
20260507162230 60 246 12.2 18.2 0.00 0.00 0.00 56 1015.4
20260507162030 60 248 13.9 20.9 0.00 0.00 0.00 56 1015.4
20260507161833 60 246 14.8 20.9 0.00 0.00 0.00 54 1015.4
20260507161621 61 232 15.6 20.9 0.00 0.00 0.00 54 1015.4
20260507161250 60 257 14.8 18.2 0.00 0.00 0.00 56 1015.3
20260507161049 60 247 13.0 17.4 0.00 0.00 0.00 54 1015.5
20260507160853 60 260 12.2 17.4 0.00 0.00 0.00 53 1015.4
20260507160654 60 260 12.2 17.4 0.00 0.00 0.00 53 1015.4
20260507160452 60 256 12.2 17.4 0.00 0.00 0.00 59 1015.4
20260507160256 60 265 12.2 17.4 0.00 0.00 0.00 57 1015.5
20260507160055 60 263 13.0 18.2 0.00 0.00 0.00 54 1015.5
20260507155859 60 250 13.9 18.2 0.00 0.00 0.00 53 1015.5
20260507155638 60 262 14.8 18.2 0.00 0.00 0.00 54 1015.5
20260507155435 60 266 13.9 18.2 0.00 0.00 0.00 55 1015.4
20260507155237 60 268 13.9 18.2 0.00 0.00 0.00 55 1015.4
20260507155038 60 257 11.3 17.4 0.00 0.00 0.00 55 1015.4
20260507154813 60 272 11.3 17.4 0.00 0.00 0.00 57 1015.4
20260507154616 60 259 12.2 19.1 0.00 0.00 0.00 54 1015.5
20260507154355 60 250 12.2 19.1 0.00 0.00 0.00 58 1015.5
20260507154159 59 231 13.0 19.1 0.00 0.00 0.00 56 1015.4
20260507153957 59 272 13.0 19.1 0.00 0.00 0.00 54 1015.5
20260507153736 59 253 13.0 19.1 0.00 0.00 0.00 53 1015.5
20260507153540 59 257 13.0 17.4 0.00 0.00 0.00 54 1015.5
20260507153318 59 245 13.0 17.4 0.00 0.00 0.00 57 1015.5
20260507153121 59 268 12.2 17.4 0.00 0.00 0.00 61 1015.5
20260507152920 59 267 11.3 17.4 0.00 0.00 0.00 61 1015.5
20260507152720 59 257 11.3 17.4 0.00 0.00 0.00 59 1015.6
20260507152524 59 269 12.2 17.4 0.00 0.00 0.00 54 1015.6
20260507152324 59 265 12.2 17.4 0.00 0.00 0.00 54 1015.7
20260507152123 59 267 12.2 17.4 0.00 0.00 0.00 57 1015.7
20260507151926 59 276 11.3 17.4 0.00 0.00 0.00 56 1015.7
20260507151725 58 246 11.3 15.6 0.00 0.00 0.00 60 1015.7
20260507151536 58 246 11.3 15.6 0.00 0.00 0.00 60 1015.6
20260507151201 58 246 11.3 15.6 0.00 0.00 0.00 60 1015.8
20260507150944 58 251 10.4 15.6 0.00 0.00 0.00 56 1015.8
20260507150744 58 257 10.4 15.6 0.00 0.00 0.00 56 1015.9
20260507150544 58 244 10.4 15.6 0.00 0.00 0.00 57 1015.9
20260507150348 58 257 11.3 15.6 0.00 0.00 0.00 57 1016.0
20260507150125 58 247 11.3 14.8 0.00 0.00 0.00 56 1016.0
20260507145928 58 243 10.4 15.6 0.00 0.00 0.00 59 1016.0
20260507145728 58 262 11.3 15.6 0.00 0.00 0.00 62 1016.0
20260507145528 57 242 10.4 15.6 0.00 0.00 0.00 60 1016.0
20260507145332 57 244 10.4 15.6 0.00 0.00 0.00 59 1016.1
20260507145109 57 261 8.7 13.0 0.00 0.00 0.00 63 1016.0
20260507144914 57 263 8.7 13.0 0.00 0.00 0.00 63 1016.0
20260507144652 57 254 8.7 12.2 0.00 0.00 0.00 67 1016.0
20260507144451 57 248 9.6 13.0 0.00 0.00 0.00 67 1016.0
20260507144233 56 255 9.6 13.0 0.00 0.00 0.00 67 1016.0
20260507144034 56 252 9.6 13.0 0.00 0.00 0.00 66 1016.0
20260507143833 56 247 9.6 13.0 0.00 0.00 0.00 68 1016.0
20260507143637 56 250 9.6 13.9 0.00 0.00 0.00 64 1016.1
20260507143438 56 244 10.4 13.9 0.00 0.00 0.00 64 1016.1
20260507143242 56 259 10.4 13.9 0.00 0.00 0.00 66 1016.0
20260507143041 55 244 10.4 13.9 0.00 0.00 0.00 66 1016.2
20260507142841 55 256 9.6 13.9 0.00 0.00 0.00 66 1016.1
20260507142624 55 258 8.7 12.2 0.00 0.00 0.00 69 1016.1
20260507142424 55 255 8.7 12.2 0.00 0.00 0.00 68 1016.1
20260507142227 55 248 8.7 12.2 0.00 0.00 0.00 72 1016.0
20260507142006 54 244 7.8 12.2 0.00 0.00 0.00 69 1016.1
20260507141745 54 256 8.7 12.2 0.00 0.00 0.00 71 1016.1
20260507141555 54 238 7.8 12.2 0.00 0.00 0.00 71 1016.1
20260507141220 54 238 8.7 12.2 0.00 0.00 0.00 71 1016.2
20260507141024 53 240 7.8 11.3 0.00 0.00 0.00 70 1016.2
20260507140824 53 247 7.8 11.3 0.00 0.00 0.00 71 1016.2
20260507140628 53 242 7.8 13.0 0.00 0.00 0.00 71 1016.3
20260507140429 53 244 8.7 13.0 0.00 0.00 0.00 73 1016.4
20260507140229 53 262 8.7 13.0 0.00 0.00 0.00 72 1016.4
20260507140032 52 228 8.7 13.0 0.00 0.00 0.00 71 1016.4
20260507135832 52 257 8.7 13.0 0.00 0.00 0.00 74 1016.3
20260507135611 52 229 7.8 13.0 0.00 0.00 0.00 74 1016.4
20260507135414 52 238 8.7 13.0 0.00 0.00 0.00 73 1016.4
20260507135214 52 239 8.7 13.0 0.00 0.00 0.00 73 1016.5
20260507134956 51 242 8.7 13.0 0.00 0.00 0.00 73 1016.4
20260507134735 51 263 9.6 13.0 0.00 0.00 0.00 74 1016.5
20260507134533 51 233 8.7 11.3 0.00 0.00 0.00 73 1016.5
20260507134337 51 257 7.8 11.3 0.00 0.00 0.00 74 1016.6
20260507134116 51 244 7.0 10.4 0.00 0.00 0.00 76 1016.6
20260507133920 51 236 7.0 12.2 0.00 0.00 0.00 75 1016.6
20260507133720 50 244 7.8 12.2 0.00 0.00 0.00 76 1016.7
20260507133520 50 244 9.6 12.2 0.00 0.00 0.00 76 1016.6
20260507133323 50 252 8.7 12.2 0.00 0.00 0.00 75 1016.6
20260507133121 50 251 8.7 12.2 0.00 0.00 0.00 77 1016.7
20260507132921 50 247 7.0 11.3 0.00 0.00 0.00 77 1016.6
20260507132724 49 251 7.8 13.0 0.00 0.00 0.00 78 1016.7
20260507132503 49 257 8.7 13.0 0.00 0.00 0.00 77 1016.7
20260507132242 49 239 9.6 13.0 0.00 0.00 0.00 76 1016.7
20260507132043 49 254 8.7 13.0 0.00 0.00 0.00 77 1016.8
20260507131843 49 244 7.8 13.0 0.00 0.00 0.00 78 1016.7
20260507131646 49 246 7.0 9.6 0.00 0.00 0.00 77 1016.7
20260507131454 49 242 7.8 9.6 0.00 0.00 0.00 78 1016.7
20260507131123 49 241 7.8 9.6 0.00 0.00 0.00 79 1016.7
20260507130922 49 249 7.0 9.6 0.00 0.00 0.00 78 1016.8
20260507130727 49 250 7.0 8.7 0.00 0.00 0.00 78 1016.8
20260507130526 48 234 5.2 8.7 0.00 0.00 0.00 78 1016.7
20260507130326 48 245 5.2 8.7 0.00 0.00 0.00 80 1016.7
20260507130129 48 240 5.2 9.6 0.00 0.00 0.00 80 1016.8
20260507125930 48 243 6.1 9.6 0.00 0.00 0.00 80 1016.8
20260507125734 48 236 7.0 9.6 0.00 0.00 0.00 80 1016.8
20260507125534 48 246 7.0 10.4 0.00 0.00 0.00 80 1016.6
20260507125334 47 252 7.0 10.4 0.00 0.00 0.00 80 1016.6
20260507125136 47 245 7.0 10.4 0.00 0.00 0.00 80 1016.6
20260507124936 47 238 7.0 10.4 0.00 0.00 0.00 80 1016.7
20260507124736 47 237 7.0 10.4 0.00 0.00 0.00 80 1016.6
20260507124540 47 244 7.0 10.4 0.00 0.00 0.00 81 1016.5
20260507124338 47 254 7.0 10.4 0.00 0.00 0.00 80 1016.5
20260507124142 47 258 7.8 10.4 0.00 0.00 0.00 81 1016.6
20260507123942 46 244 7.0 10.4 0.00 0.00 0.00 82 1016.5
20260507123742 46 252 6.1 9.6 0.00 0.00 0.00 81 1016.5
20260507123546 46 251 5.2 8.7 0.00 0.00 0.00 82 1016.4
20260507123346 46 241 5.2 8.7 0.00 0.00 0.00 82 1016.4
20260507123149 46 252 5.2 9.6 0.00 0.00 0.00 83 1016.4
20260507122949 46 243 6.1 9.6 0.00 0.00 0.00 83 1016.4
20260507122746 46 248 5.2 9.6 0.00 0.00 0.00 82 1016.4
20260507122528 45 244 6.1 9.6 0.00 0.00 0.00 83 1016.3
20260507122327 45 255 6.1 8.7 0.00 0.00 0.00 83 1016.4
20260507122128 45 250 5.2 7.8 0.00 0.00 0.00 83 1016.3
20260507121910 45 250 5.2 8.7 0.00 0.00 0.00 83 1016.3
20260507121649 45 231 4.3 8.7 0.00 0.00 0.00 84 1016.2
20260507121501 44 237 4.3 8.7 0.00 0.00 0.00 84 1016.1
20260507121125 44 236 4.3 8.7 0.00 0.00 0.00 84 1016.1
20260507120929 44 235 4.3 7.0 0.00 0.00 0.00 84 1016.1
20260507120708 44 229 4.3 7.0 0.00 0.00 0.00 84 1016.1
20260507120508 44 239 4.3 6.1 0.00 0.00 0.00 84 1016.1
20260507120312 44 236 4.3 6.1 0.00 0.00 0.00 85 1016.0
20260507120051 44 231 4.3 6.1 0.00 0.00 0.00 85 1016.0
20260507115854 43 233 4.3 6.1 0.00 0.00 0.00 85 1016.0
20260507115653 43 240 3.5 5.2 0.00 0.00 0.00 85 1016.0
20260507115453 43 232 4.3 6.1 0.00 0.00 0.00 85 1016.0
20260507115253 43 224 4.3 6.1 0.00 0.00 0.00 85 1016.0
20260507115053 43 236 4.3 6.1 0.00 0.00 0.00 85 1016.0
20260507114856 43 234 4.3 6.1 0.00 0.00 0.00 85 1015.9
20260507114656 43 235 4.3 6.1 0.00 0.00 0.00 85 1015.9
20260507114456 43 236 4.3 6.1 0.00 0.00 0.00 86 1015.9
20260507114300 43 225 3.5 5.2 0.00 0.00 0.00 86 1016.0
20260507114100 42 236 3.5 5.2 0.00 0.00 0.00 86 1016.0
20260507113859 42 238 3.5 6.1 0.00 0.00 0.00 86 1016.0
20260507113703 42 226 3.5 6.1 0.00 0.00 0.00 87 1016.0
20260507113442 42 236 2.6 4.3 0.00 0.00 0.00 87 1016.0
20260507113246 42 236 2.6 4.3 0.00 0.00 0.00 87 1016.0
20260507113046 41 236 1.7 4.3 0.00 0.00 0.00 87 1016.0
20260507112846 41 236 0.9 2.6 0.00 0.00 0.00 87 1015.9
20260507112650 41 236 0.0 0.0 0.00 0.00 0.00 87 1015.9
20260507112450 41 236 0.0 0.0 0.00 0.00 0.00 87 1015.9
20260507112254 41 236 0.0 0.0 0.00 0.00 0.00 87 1015.9
20260507112053 41 236 0.0 0.0 0.00 0.00 0.00 86 1016.0
20260507111853 41 236 0.0 0.0 0.00 0.00 0.00 86 1016.0
20260507111705 41 236 0.0 0.0 0.00 0.00 0.00 86 1016.0
20260507111309 41 236 0.0 0.0 0.00 0.00 0.00 86 1015.9
20260507111112 41 236 0.0 0.0 0.00 0.00 0.00 86 1016.0
20260507110913 41 236 0.0 0.0 0.00 0.00 0.00 86 1015.9
20260507110716 41 236 0.0 0.0 0.00 0.00 0.00 86 1015.9
20260507110516 41 236 0.0 0.0 0.00 0.00 0.00 86 1015.9
20260507110255 41 236 0.0 0.0 0.00 0.00 0.00 86 1015.9
20260507110038 41 236 0.0 0.0 0.00 0.00 0.00 86 1015.9
20260507105838 41 236 0.0 0.0 0.00 0.00 0.00 86 1015.9
20260507105637 41 236 0.0 0.0 0.00 0.00 0.00 86 1015.9
20260507105442 41 236 0.0 0.0 0.00 0.00 0.00 86 1015.9
20260507105241 41 236 0.0 0.0 0.00 0.00 0.00 86 1015.9
20260507105044 41 236 0.0 0.0 0.00 0.00 0.00 86 1015.9
20260507104844 41 236 0.0 0.0 0.00 0.00 0.00 86 1015.9
20260507104623 41 236 0.0 0.0 0.00 0.00 0.00 86 1016.0
20260507104405 41 236 0.0 0.9 0.00 0.00 0.00 86 1016.0
20260507104205 41 236 0.0 0.9 0.00 0.00 0.00 86 1016.0
20260507104008 41 236 0.0 0.9 0.00 0.00 0.00 86 1016.0
20260507103808 41 236 0.0 1.7 0.00 0.00 0.00 86 1016.0
20260507103608 41 236 0.9 1.7 0.00 0.00 0.00 86 1016.0
20260507103412 41 236 0.9 1.7 0.00 0.00 0.00 86 1016.0
20260507103212 41 236 0.9 1.7 0.00 0.00 0.00 86 1016.0
20260507103012 41 236 0.9 1.7 0.00 0.00 0.00 86 1016.0
20260507102815 41 236 0.9 1.7 0.00 0.00 0.00 86 1016.0
20260507102614 41 236 0.9 1.7 0.00 0.00 0.00 86 1016.0
20260507102419 41 236 1.7 2.6 0.00 0.00 0.00 87 1016.0
20260507102218 41 236 1.7 2.6 0.00 0.00 0.00 86 1016.0
20260507102018 41 236 1.7 2.6 0.00 0.00 0.00 87 1016.0
20260507101821 41 236 1.7 2.6 0.00 0.00 0.00 87 1016.0
20260507101628 42 236 1.7 2.6 0.00 0.00 0.00 87 1016.0
20260507101257 42 236 1.7 2.6 0.00 0.00 0.00 86 1016.1
20260507101057 42 236 1.7 2.6 0.00 0.00 0.00 86 1016.1
20260507100900 42 236 1.7 2.6 0.00 0.00 0.00 86 1016.1
20260507100638 42 236 1.7 2.6 0.00 0.00 0.00 86 1016.1
20260507100438 42 236 1.7 2.6 0.00 0.00 0.00 86 1016.0
20260507100242 42 236 1.7 2.6 0.00 0.00 0.00 86 1016.0
20260507100040 42 236 0.9 2.6 0.00 0.00 0.00 86 1016.0
20260507095823 42 236 0.9 2.6 0.00 0.00 0.00 86 1016.0
20260507095622 42 236 0.9 2.6 0.00 0.00 0.00 86 1015.9
20260507095422 42 236 0.9 2.6 0.00 0.00 0.00 86 1015.9
20260507095228 42 236 0.9 2.6 0.00 0.00 0.00 86 1015.9
20260507095027 42 236 1.7 2.6 0.00 0.00 0.00 86 1015.9
20260507094827 42 236 1.7 2.6 0.00 0.00 0.00 86 1015.9
20260507094631 42 236 1.7 2.6 0.00 0.00 0.00 86 1016.0
20260507094431 42 236 1.7 2.6 0.00 0.00 0.00 86 1016.0
20260507094214 42 236 1.7 2.6 0.00 0.00 0.00 87 1015.9
20260507094013 42 236 0.9 2.6 0.00 0.00 0.00 86 1016.0
20260507093813 42 236 1.7 2.6 0.00 0.00 0.00 86 1015.9
20260507093556 42 236 1.7 2.6 0.00 0.00 0.00 86 1015.9
20260507093355 42 236 1.7 2.6 0.00 0.00 0.00 86 1015.9
20260507093159 42 236 1.7 2.6 0.00 0.00 0.00 86 1015.9
20260507092954 42 236 1.7 2.6 0.00 0.00 0.00 86 1015.9
20260507092748 42 236 1.7 2.6 0.00 0.00 0.00 86 1015.9
20260507092553 43 236 1.7 1.7 0.00 0.00 0.00 85 1015.9
20260507092351 43 236 1.7 1.7 0.00 0.00 0.00 85 1015.9
20260507092130 43 236 1.7 1.7 0.00 0.00 0.00 85 1015.9
20260507091933 43 236 0.9 2.6 0.00 0.00 0.00 85 1015.8
20260507091733 43 236 0.9 2.6 0.00 0.00 0.00 84 1015.9
20260507091543 43 236 1.7 2.6 0.00 0.00 0.00 84 1015.9
20260507091208 43 236 0.9 2.6 0.00 0.00 0.00 84 1015.9
20260507091012 43 236 1.7 2.6 0.00 0.00 0.00 84 1015.9
20260507090812 44 236 1.7 3.5 0.00 0.00 0.00 83 1015.9
20260507090612 44 236 1.7 3.5 0.00 0.00 0.00 83 1015.9
20260507090415 44 236 1.7 3.5 0.00 0.00 0.00 83 1015.9
20260507090153 44 236 1.7 4.3 0.00 0.00 0.00 82 1015.9
20260507085957 44 236 1.7 4.3 0.00 0.00 0.00 82 1015.9
20260507085758 44 236 2.6 4.3 0.00 0.00 0.00 81 1015.9
20260507085557 44 236 3.5 4.3 0.00 0.00 0.00 81 1015.9
20260507085401 44 236 3.5 4.3 0.00 0.00 0.00 80 1015.9
20260507085201 44 235 3.5 6.1 0.00 0.00 0.00 80 1015.9
20260507085004 45 235 2.6 6.1 0.00 0.00 0.00 80 1015.9
20260507084804 45 235 2.6 6.1 0.00 0.00 0.00 80 1015.9
20260507084543 45 235 3.5 6.1 0.00 0.00 0.00 80 1015.9
20260507084346 45 235 3.5 6.1 0.00 0.00 0.00 79 1015.9
20260507084145 45 235 3.5 5.2 0.00 0.00 0.00 79 1015.9
20260507083945 45 229 3.5 4.3 0.00 0.00 0.00 79 1015.9
20260507083749 45 229 3.5 5.2 0.00 0.00 0.00 79 1015.9
20260507083550 45 229 3.5 5.2 0.00 0.00 0.00 79 1015.9
20260507083354 45 229 3.5 5.2 0.00 0.00 0.00 80 1015.9
20260507083154 45 229 3.5 5.2 0.00 0.00 0.00 81 1015.9
20260507082954 45 229 3.5 4.3 0.00 0.00 0.00 81 1015.8
20260507082759 45 233 2.6 4.3 0.00 0.00 0.00 81 1015.9
20260507082559 44 231 2.6 4.3 0.00 0.00 0.00 83 1015.9
20260507082403 44 231 1.7 2.6 0.00 0.00 0.00 83 1015.9
20260507082142 44 231 1.7 2.6 0.00 0.00 0.00 83 1015.9
20260507081920 45 231 1.7 2.6 0.00 0.00 0.00 84 1015.9
20260507081724 45 231 1.7 4.3 0.00 0.00 0.00 84 1015.9
20260507081510 45 231 1.7 4.3 0.00 0.00 0.00 84 1015.9
20260507081139 45 231 1.7 4.3 0.00 0.00 0.00 83 1015.9
20260507080939 45 231 2.6 4.3 0.00 0.00 0.00 81 1016.0
20260507080743 45 231 3.5 6.1 0.00 0.00 0.00 81 1016.0
20260507080542 45 231 3.5 6.1 0.00 0.00 0.00 81 1016.0
20260507080342 45 231 3.5 6.1 0.00 0.00 0.00 83 1016.1
20260507080124 45 236 3.5 6.1 0.00 0.00 0.00 83 1016.1
20260507075924 45 236 4.3 6.1 0.00 0.00 0.00 83 1016.1
20260507075724 45 237 3.5 5.2 0.00 0.00 0.00 83 1016.1
20260507075528 45 281 3.5 5.2 0.00 0.00 0.00 85 1016.1
20260507075327 45 281 3.5 4.3 0.00 0.00 0.00 85 1016.2
20260507075132 45 281 3.5 5.2 0.00 0.00 0.00 85 1016.2
20260507074932 44 281 3.5 5.2 0.00 0.00 0.00 86 1016.1
20260507074731 44 281 2.6 3.5 0.00 0.00 0.00 87 1016.1
20260507074536 44 281 2.6 3.5 0.00 0.00 0.00 87 1016.1
20260507074336 44 281 1.7 2.6 0.00 0.00 0.00 87 1016.2
20260507074139 44 281 1.7 2.6 0.00 0.00 0.00 87 1016.2
20260507073939 44 281 1.7 2.6 0.00 0.00 0.00 87 1016.3
20260507073718 44 281 2.6 3.5 0.00 0.00 0.00 87 1016.3
20260507073521 44 281 2.6 3.5 0.00 0.00 0.00 87 1016.3
20260507073320 44 281 2.6 3.5 0.00 0.00 0.00 87 1016.3
20260507073120 44 281 2.6 3.5 0.00 0.00 0.00 87 1016.4
20260507072903 44 281 2.6 3.5 0.00 0.00 0.00 87 1016.4
20260507072703 44 281 2.6 3.5 0.00 0.00 0.00 88 1016.4
20260507072506 44 281 2.6 3.5 0.00 0.00 0.00 88 1016.4
20260507072308 44 281 2.6 3.5 0.00 0.00 0.00 87 1016.4
20260507072106 44 281 2.6 3.5 0.00 0.00 0.00 87 1016.4
20260507071909 44 281 2.6 3.5 0.00 0.00 0.00 88 1016.4
20260507071709 44 281 2.6 4.3 0.00 0.00 0.00 88 1016.4
20260507071522 44 281 2.6 4.3 0.00 0.00 0.00 88 1016.5
20260507071146 44 281 1.7 3.5 0.00 0.00 0.00 88 1016.4
20260507070929 44 281 1.7 2.6 0.00 0.00 0.00 88 1016.4
20260507070728 44 281 0.9 2.6 0.00 0.00 0.00 88 1016.4
20260507070507 44 281 0.9 1.7 0.00 0.00 0.00 88 1016.5
20260507070311 44 281 0.9 2.6 0.00 0.00 0.00 88 1016.5
20260507070111 44 281 0.9 2.6 0.00 0.00 0.00 88 1016.5
20260507065914 44 281 0.9 2.6 0.00 0.00 0.00 88 1016.5
20260507065714 44 281 1.7 2.6 0.00 0.00 0.00 88 1016.6
20260507065514 44 281 1.7 2.6 0.00 0.00 0.00 88 1016.6
20260507065255 44 281 1.7 2.6 0.00 0.00 0.00 88 1016.6
20260507065056 44 360 1.7 2.6 0.00 0.00 0.00 88 1016.7
20260507064856 44 360 1.7 2.6 0.00 0.00 0.00 88 1016.7
20260507064659 44 360 1.7 2.6 0.00 0.00 0.00 88 1016.7
20260507064500 44 360 1.7 2.6 0.00 0.00 0.00 87 1016.7
20260507064304 44 360 1.7 2.6 0.00 0.00 0.00 87 1016.7
20260507064044 44 360 1.7 2.6 0.00 0.00 0.00 87 1016.8
20260507063844 44 360 1.7 2.6 0.00 0.00 0.00 86 1016.8
20260507063626 44 360 2.6 2.6 0.00 0.00 0.00 86 1016.7
20260507063405 44 360 1.7 2.6 0.00 0.00 0.00 85 1016.7
20260507063209 44 360 1.7 2.6 0.00 0.00 0.00 85 1016.7
20260507063009 44 360 1.7 2.6 0.00 0.00 0.00 85 1016.7
20260507062747 44 360 1.7 2.6 0.00 0.00 0.00 85 1016.7
20260507062551 44 360 1.7 2.6 0.00 0.00 0.00 85 1016.7
20260507062351 44 360 1.7 2.6 0.00 0.00 0.00 85 1016.7
20260507062150 44 360 0.9 2.6 0.00 0.00 0.00 84 1016.8
20260507061953 44 360 1.7 2.6 0.00 0.00 0.00 84 1016.8
20260507061753 44 360 1.7 2.6 0.00 0.00 0.00 84 1016.8
20260507061606 44 360 1.7 2.6 0.00 0.00 0.00 84 1016.8
20260507061231 44 360 1.7 2.6 0.00 0.00 0.00 84 1016.8
20260507061013 44 360 1.7 2.6 0.00 0.00 0.00 84 1016.8
20260507060813 44 360 1.7 2.6 0.00 0.00 0.00 84 1016.7
20260507060613 44 360 1.7 1.7 0.00 0.00 0.00 84 1016.7
20260507060417 44 360 0.9 2.6 0.00 0.00 0.00 84 1016.7
20260507060217 44 360 0.9 2.6 0.00 0.00 0.00 84 1016.7
20260507060021 44 360 0.9 2.6 0.00 0.00 0.00 84 1016.7
20260507055821 44 360 1.7 2.6 0.00 0.00 0.00 84 1016.7
20260507055619 44 360 0.9 2.6 0.00 0.00 0.00 85 1016.7
20260507055423 44 360 0.9 2.6 0.00 0.00 0.00 85 1016.7
20260507055202 44 360 0.0 2.6 0.00 0.00 0.00 86 1016.7
20260507055006 44 360 0.0 0.9 0.00 0.00 0.00 86 1016.7
20260507054804 43 360 0.0 0.0 0.00 0.00 0.00 87 1016.7
20260507054604 43 360 0.0 0.0 0.00 0.00 0.00 87 1016.7
20260507054407 43 360 0.0 0.0 0.00 0.00 0.00 87 1016.7
20260507054208 43 360 0.0 0.0 0.00 0.00 0.00 87 1016.7
20260507053946 43 360 0.0 0.0 0.00 0.00 0.00 87 1016.7
20260507053749 43 360 0.0 0.0 0.00 0.00 0.00 87 1016.7
20260507053549 43 360 0.0 0.0 0.00 0.00 0.00 87 1016.7
20260507053353 43 360 0.0 0.0 0.00 0.00 0.00 88 1016.8
20260507053153 43 360 0.0 0.0 0.00 0.00 0.00 88 1016.9
20260507052953 43 360 0.0 0.0 0.00 0.00 0.00 88 1016.9
20260507052756 43 360 0.0 0.0 0.00 0.00 0.00 88 1016.8
20260507052556 43 360 0.0 0.0 0.00 0.00 0.00 88 1016.8
20260507052359 44 360 0.0 0.0 0.00 0.00 0.00 88 1016.9
20260507052159 44 360 0.0 0.0 0.00 0.00 0.00 87 1016.9
20260507051937 44 360 0.0 0.0 0.00 0.00 0.00 87 1017.0
20260507051741 44 360 0.0 0.0 0.00 0.00 0.00 87 1017.0
20260507051549 44 360 0.0 0.0 0.00 0.00 0.00 87 1017.0
20260507051218 44 360 0.0 0.0 0.00 0.00 0.00 87 1016.9
20260507050957 44 360 0.0 0.0 0.00 0.00 0.00 86 1017.0
20260507050801 44 360 0.0 0.0 0.00 0.00 0.00 86 1016.9
20260507050601 44 360 0.0 0.0 0.00 0.00 0.00 85 1016.9
20260507050400 44 360 0.0 0.0 0.00 0.00 0.00 85 1016.9
20260507050204 44 360 0.0 0.0 0.00 0.00 0.00 85 1016.9
20260507050005 44 360 0.0 0.0 0.00 0.00 0.00 84 1016.9
20260507045743 44 360 0.0 0.0 0.00 0.00 0.00 85 1016.8
20260507045547 44 360 0.0 1.7 0.00 0.00 0.00 84 1016.8
20260507045347 44 360 0.0 1.7 0.00 0.00 0.00 84 1016.8
20260507045149 44 360 0.0 1.7 0.00 0.00 0.00 85 1016.8
20260507044928 44 360 0.0 1.7 0.00 0.00 0.00 85 1016.8
20260507044727 44 360 0.0 1.7 0.00 0.00 0.00 85 1016.8
20260507044510 44 360 0.0 0.0 0.00 0.00 0.00 85 1016.7
20260507044308 44 360 0.0 0.0 0.00 0.00 0.00 86 1016.8
20260507044112 44 360 0.0 0.0 0.00 0.00 0.00 86 1016.8
20260507043912 44 360 0.0 0.0 0.00 0.00 0.00 86 1016.8
20260507043712 44 360 0.0 0.0 0.00 0.00 0.00 86 1016.8
20260507043455 44 360 0.0 0.0 0.00 0.00 0.00 87 1016.8
20260507043254 44 360 0.0 0.0 0.00 0.00 0.00 86 1016.9
20260507043055 44 360 0.0 0.0 0.00 0.00 0.00 86 1016.9
20260507042838 44 360 0.0 0.0 0.00 0.00 0.00 85 1016.9
20260507042638 44 360 0.0 0.0 0.00 0.00 0.00 85 1016.9
20260507042421 45 360 0.0 0.0 0.00 0.00 0.00 85 1016.9
20260507042220 45 360 0.0 0.0 0.00 0.00 0.00 85 1016.9
20260507041959 45 360 0.0 0.0 0.00 0.00 0.00 85 1016.9
20260507041803 45 360 0.0 0.0 0.00 0.00 0.00 85 1016.9
20260507041550 45 360 0.0 0.0 0.00 0.00 0.00 83 1016.9
20260507041218 45 360 0.0 0.0 0.00 0.00 0.00 83 1016.9
20260507041018 46 360 0.0 0.0 0.00 0.00 0.00 84 1016.9
20260507040801 46 360 0.0 0.0 0.00 0.00 0.00 84 1016.9
20260507040601 46 360 0.0 0.0 0.00 0.00 0.00 83 1017.0
20260507040400 46 360 0.0 0.0 0.00 0.00 0.00 83 1017.0
20260507040204 46 360 0.0 0.0 0.00 0.00 0.00 82 1016.9
20260507035943 46 360 0.0 0.0 0.00 0.00 0.00 82 1016.9
20260507035726 46 360 0.0 0.0 0.00 0.00 0.00 83 1017.0
20260507035526 46 360 0.0 0.0 0.00 0.00 0.00 82 1017.0
20260507035306 46 360 0.0 0.0 0.00 0.00 0.00 82 1016.9
20260507035109 46 360 0.0 0.0 0.00 0.00 0.00 83 1016.9
20260507034909 46 360 0.0 0.0 0.00 0.00 0.00 82 1016.9
20260507034706 46 360 0.0 0.0 0.00 0.01 0.00 82 1016.9
20260507034511 46 360 0.0 0.0 0.00 0.01 0.00 82 1016.9
20260507034249 46 360 0.0 0.0 0.00 0.01 0.00 81 1017.0
20260507034032 47 360 0.0 0.0 0.00 0.01 0.00 81 1017.0
20260507033831 47 360 0.0 0.0 0.00 0.01 0.00 81 1017.0
20260507033609 47 360 0.0 0.0 0.00 0.01 0.00 80 1017.0
20260507033413 47 360 0.0 0.0 0.00 0.01 0.00 79 1017.1
20260507033212 47 360 0.0 0.0 0.00 0.01 0.00 78 1017.1
20260507032955 47 360 0.0 0.0 0.00 0.01 0.00 77 1017.1
20260507032733 47 360 0.0 0.0 0.00 0.01 0.00 77 1017.1
20260507032532 47 360 0.0 0.0 0.00 0.01 0.00 78 1017.1
20260507032314 47 360 0.0 0.0 0.00 0.01 0.00 79 1017.1
20260507032114 47 360 0.0 0.0 0.00 0.01 0.00 77 1017.0
20260507031853 47 360 0.0 0.0 0.00 0.01 0.00 78 1017.0
20260507031657 47 360 0.0 0.0 0.00 0.01 0.00 77 1017.0
20260507031508 48 360 0.0 0.0 0.00 0.01 0.00 78 1017.0
20260507031133 48 360 0.0 0.0 0.00 0.01 0.00 78 1016.9
20260507030932 48 360 0.0 0.0 0.00 0.01 0.00 78 1016.9
20260507030736 48 360 0.0 0.0 0.00 0.01 0.00 77 1016.9
20260507030536 48 360 0.0 0.0 0.00 0.01 0.00 76 1017.0
20260507030335 48 360 0.0 0.0 0.00 0.01 0.00 76 1017.0
20260507030139 48 360 0.0 0.0 0.00 0.01 0.00 75 1017.1
20260507025938 48 360 0.0 0.0 0.00 0.01 0.00 71 1017.1
20260507025742 49 360 0.0 0.0 0.00 0.01 0.00 71 1017.0
20260507025542 49 360 0.0 0.0 0.00 0.01 0.00 71 1017.1
20260507025342 49 360 0.0 0.0 0.00 0.01 0.00 74 1017.0
20260507025145 49 360 0.0 0.0 0.00 0.01 0.00 74 1017.0
20260507024945 49 360 0.0 0.0 0.00 0.01 0.00 74 1017.0
20260507024747 49 360 0.0 0.0 0.00 0.01 0.00 74 1016.9
20260507024547 49 360 0.0 0.0 0.00 0.01 0.00 73 1016.9
20260507024347 49 360 0.0 0.0 0.00 0.01 0.00 73 1017.0
20260507024130 49 360 0.0 0.0 0.00 0.01 0.00 69 1016.9
20260507023930 49 360 0.0 0.0 0.00 0.01 0.00 69 1016.9
20260507023709 49 360 0.0 0.0 0.00 0.01 0.00 70 1016.9
20260507023513 50 360 0.0 0.0 0.00 0.01 0.00 70 1016.9
20260507023313 50 360 0.0 0.0 0.00 0.01 0.00 70 1016.9
20260507023116 50 360 0.0 0.0 0.00 0.01 0.00 68 1016.9
20260507022916 50 360 0.0 0.0 0.00 0.01 0.00 67 1016.9
20260507022716 50 360 0.0 0.0 0.00 0.01 0.00 60 1016.8
20260507022519 50 360 0.0 0.0 0.00 0.01 0.00 60 1016.8
20260507022319 51 360 0.0 0.0 0.00 0.01 0.00 60 1016.8
20260507022122 51 360 0.0 0.0 0.00 0.01 0.00 61 1016.7
20260507021901 51 360 0.0 0.0 0.00 0.01 0.00 62 1016.7
20260507021701 51 360 0.0 0.0 0.00 0.01 0.00 58 1016.7
20260507021513 51 360 0.0 0.0 0.00 0.01 0.00 57 1016.6
20260507021136 51 360 0.0 0.0 0.00 0.01 0.00 56 1016.7
20260507020940 51 360 0.0 0.0 0.00 0.01 0.00 56 1016.7
20260507020740 52 360 0.0 0.0 0.00 0.01 0.00 56 1016.6
20260507020522 52 360 0.0 0.0 0.00 0.01 0.00 54 1016.6
20260507020322 52 360 0.0 0.0 0.00 0.01 0.00 53 1016.6
20260507020121 52 360 0.0 0.0 0.00 0.01 0.00 55 1016.6
20260507015925 52 360 0.0 0.0 0.00 0.01 0.00 55 1016.5
20260507015725 52 360 0.0 0.0 0.00 0.01 0.00 59 1016.5
20260507015523 52 360 0.0 0.0 0.00 0.01 0.00 59 1016.5
20260507015327 52 360 0.0 0.0 0.00 0.01 0.00 57 1016.4
20260507015127 53 360 0.0 0.0 0.00 0.01 0.00 58 1016.5
20260507014930 53 360 0.0 0.0 0.00 0.01 0.00 61 1016.4